Regional Weather Roundup
Issued by NWS Goodland, KS

Home | Current Version | Previous Version | Text Only | Print | Product List | Glossary Off
Versions: 1 2 3 4 5 6 7 8 9 10 11 12 13 14 15 16 17 18 19 20 21 22 23 24 25 26 27 28 29 30 31 32 33 34 35 36 37 38 39 40 41 42 43 44 45 46 47 48 49 50

000
ASUS43 KGLD 252108
RWRGLD

GOODLAND FORECAST AREA HOURLY WEATHER ROUNDUP
NATIONAL WEATHER SERVICE GOODLAND KS
200 PM MST THU DEC 25 2014

...OFFICIAL OBSERVATIONS...

CITY           SKY/WX    TMP DP  RH WIND       PRES   REMARKS
GOODLAND KS    SUNNY     45  23  42 N17       29.46R
HILL CITY KS   SUNNY     56  25  30 W8        29.45R
IMPERIAL NEB   SUNNY     41  27  57 N18G26    29.51R
MCCOOK NEB     SUNNY     42  23  46 NE9       29.49R
AKRON CO       CLOUDY    35  29  78 N18G26    29.50R
BURLINGTON CO  SUNNY     41  25  53 N17       29.46R
LIMON CO       SUNNY     40  26  57 N20       29.46R
$$

...UNOFFICIAL OBSERVATIONS...

CITY           SKY/WX    TMP DP  RH WIND       PRES   REMARKS
COLBY KS       SUNNY     45  30  57 NW10      29.47R
GOVE KS          N/A     63  32  31 MISG        N/A
NORTON KS      SUNNY     48  19  32 CALM      29.46R
SHARON SPRINGS   N/A     60  26  27 SW21G33     N/A
TRIBUNE KS     SUNNY     63  34  34 SW28      29.45R
KIT CARSON CO    N/A     55  24  30 MISG        N/A
YUMA CO          N/A     37  28  70 N20         N/A
$$



USA.gov is the U.S. government's official web portal to all federal, state and local government web resources and services.